Time,TemperatureF,DewpointF,PressureIn,WindDirection,WindDirectionDegrees,WindSpeedMPH,WindSpeedGustMPH,Humidity,HourlyPrecipIn,Conditions,Clouds,dailyrainin,SoftwareType,DateUTC
2013-02-18 00:00:00,43.3,27.3,30.35,NE,45,1.0,7.0,53,0.00,,,0.00,meteohub,2013-02-18 05:00:00,
2013-02-18 00:03:00,43.3,27.3,30.35,North,0,3.0,7.0,53,0.00,,,0.00,meteohub,2013-02-18 05:03:00,
2013-02-18 00:05:00,43.3,27.3,30.35,North,0,2.0,7.0,53,0.00,,,0.00,meteohub,2013-02-18 05:05:00,
2013-02-18 00:10:00,43.2,27.7,30.35,NW,315,1.0,7.0,54,0.00,,,0.00,meteohub,2013-02-18 05:10:00,
2013-02-18 00:15:00,43.0,27.9,30.35,NW,315,3.0,3.0,55,0.00,,,0.00,meteohub,2013-02-18 05:15:00,
2013-02-18 00:21:00,43.0,27.9,30.35,NNW,338,2.0,3.0,55,0.00,,,0.00,meteohub,2013-02-18 05:21:00,
2013-02-18 00:26:00,42.8,28.2,30.35,NW,315,1.0,3.0,56,0.00,,,0.00,meteohub,2013-02-18 05:26:00,
2013-02-18 00:31:00,42.3,28.6,30.35,NW,315,0.0,3.0,58,0.00,,,0.00,meteohub,2013-02-18 05:31:00,
2013-02-18 00:36:00,42.1,28.8,30.35,NW,315,1.0,2.0,59,0.00,,,0.00,meteohub,2013-02-18 05:36:00,
2013-02-18 00:41:00,41.7,28.9,30.35,NW,315,0.0,2.0,60,0.00,,,0.00,meteohub,2013-02-18 05:41:00,
2013-02-18 00:46:00,41.7,29.3,30.35,NW,315,2.0,2.0,61,0.00,,,0.00,meteohub,2013-02-18 05:46:00,
2013-02-18 00:52:00,41.7,29.7,30.35,West,270,1.0,2.0,62,0.00,,,0.00,meteohub,2013-02-18 05:52:00,
2013-02-18 00:57:00,41.5,29.5,30.35,West,270,1.0,2.0,62,0.00,,,0.00,meteohub,2013-02-18 05:57:00,
2013-02-18 01:02:00,41.2,29.5,30.35,NW,315,1.0,2.0,63,0.00,,,0.00,meteohub,2013-02-18 06:02:00,
2013-02-18 01:07:00,40.8,30.0,30.35,North,0,3.0,3.0,65,0.00,,,0.00,meteohub,2013-02-18 06:07:00,
2013-02-18 01:12:00,40.6,29.8,30.35,West,270,0.0,3.0,65,0.00,,,0.00,meteohub,2013-02-18 06:12:00,
2013-02-18 01:17:00,40.5,29.7,30.35,NW,315,0.0,3.0,65,0.00,,,0.00,meteohub,2013-02-18 06:17:00,
2013-02-18 01:22:00,39.9,29.1,30.35,North,0,3.0,3.0,65,0.00,,,0.00,meteohub,2013-02-18 06:22:00,
2013-02-18 01:27:00,39.9,29.5,30.35,NW,315,2.0,3.0,66,0.00,,,0.00,meteohub,2013-02-18 06:27:00,
2013-02-18 01:32:00,39.9,29.5,30.34,NW,315,1.0,3.0,66,0.00,,,0.00,meteohub,2013-02-18 06:32:00,
2013-02-18 01:37:00,39.9,29.5,30.34,North,0,2.0,3.0,66,0.00,,,0.00,meteohub,2013-02-18 06:37:00,
2013-02-18 01:42:00,39.9,29.5,30.34,NW,315,0.0,3.0,66,0.00,,,0.00,meteohub,2013-02-18 06:42:00,
2013-02-18 01:47:00,39.9,29.5,30.34,North,0,2.0,2.0,66,0.00,,,0.00,meteohub,2013-02-18 06:47:00,
2013-02-18 01:52:00,39.9,29.5,30.34,North,0,2.0,2.0,66,0.00,,,0.00,meteohub,2013-02-18 06:52:00,
2013-02-18 01:57:00,39.9,29.5,30.34,North,0,2.0,2.0,66,0.00,,,0.00,meteohub,2013-02-18 06:57:00,
2013-02-18 02:02:00,39.9,29.5,30.33,NW,315,3.0,3.0,66,0.00,,,0.00,meteohub,2013-02-18 07:02:00,
2013-02-18 02:07:00,40.1,29.7,30.33,NW,315,2.0,3.0,66,0.00,,,0.00,meteohub,2013-02-18 07:07:00,
2013-02-18 02:12:00,40.1,29.7,30.33,NW,315,1.0,3.0,66,0.00,,,0.00,meteohub,2013-02-18 07:12:00,
2013-02-18 02:17:00,40.1,29.7,30.33,North,0,1.0,3.0,66,0.00,,,0.00,meteohub,2013-02-18 07:17:00,
2013-02-18 02:22:00,39.9,29.5,30.33,NW,315,1.0,3.0,66,0.00,,,0.00,meteohub,2013-02-18 07:22:00,
2013-02-18 02:27:00,39.9,29.5,30.32,NW,315,2.0,2.0,66,0.00,,,0.00,meteohub,2013-02-18 07:27:00,
2013-02-18 02:32:00,39.7,29.3,30.33,North,0,1.0,2.0,66,0.00,,,0.00,meteohub,2013-02-18 07:32:00,
2013-02-18 02:37:00,39.6,29.1,30.33,NNW,338,2.0,2.0,66,0.00,,,0.00,meteohub,2013-02-18 07:37:00,
2013-02-18 02:42:00,39.4,28.9,30.33,NW,315,2.0,2.0,66,0.00,,,0.00,meteohub,2013-02-18 07:42:00,
2013-02-18 02:47:00,39.2,28.8,30.32,NW,315,1.0,2.0,66,0.00,,,0.00,meteohub,2013-02-18 07:47:00,
2013-02-18 02:52:00,39.0,29.3,30.33,NW,315,0.0,2.0,68,0.00,,,0.00,meteohub,2013-02-18 07:52:00,
2013-02-18 02:57:00,38.8,29.1,30.33,NW,315,1.0,2.0,68,0.00,,,0.00,meteohub,2013-02-18 07:57:00,
2013-02-18 03:02:00,38.7,28.9,30.32,North,0,1.0,2.0,68,0.00,,,0.00,meteohub,2013-02-18 08:02:00,
2013-02-18 03:07:00,38.8,29.1,30.32,West,270,2.0,2.0,68,0.00,,,0.00,meteohub,2013-02-18 08:07:00,
2013-02-18 03:12:00,39.0,29.3,30.32,NW,315,1.0,2.0,68,0.00,,,0.00,meteohub,2013-02-18 08:12:00,
2013-02-18 03:17:00,39.2,29.1,30.32,North,0,1.0,2.0,67,0.00,,,0.00,meteohub,2013-02-18 08:17:00,
2013-02-18 03:22:00,39.0,29.3,30.32,NW,315,0.0,2.0,68,0.00,,,0.00,meteohub,2013-02-18 08:22:00,
2013-02-18 03:27:00,38.8,29.5,30.32,NW,315,1.0,2.0,69,0.00,,,0.00,meteohub,2013-02-18 08:27:00,
2013-02-18 03:32:00,39.0,29.7,30.33,NW,315,2.0,3.0,69,0.00,,,0.00,meteohub,2013-02-18 08:32:00,
2013-02-18 03:37:00,38.8,29.5,30.32,NW,315,2.0,3.0,69,0.00,,,0.00,meteohub,2013-02-18 08:37:00,
2013-02-18 03:42:00,38.7,29.3,30.32,North,0,1.0,3.0,69,0.00,,,0.00,meteohub,2013-02-18 08:42:00,
2013-02-18 03:47:00,38.5,29.1,30.32,North,0,0.0,2.0,69,0.00,,,0.00,meteohub,2013-02-18 08:47:00,
2013-02-18 03:52:00,38.3,29.3,30.32,West,270,2.0,2.0,70,0.00,,,0.00,meteohub,2013-02-18 08:52:00,
2013-02-18 03:57:00,38.3,29.3,30.32,NW,315,0.0,2.0,70,0.00,,,0.00,meteohub,2013-02-18 08:57:00,
2013-02-18 04:02:00,38.1,29.1,30.32,NW,315,0.0,2.0,70,0.00,,,0.00,meteohub,2013-02-18 09:02:00,
2013-02-18 04:07:00,38.1,29.1,30.32,NW,315,0.0,2.0,70,0.00,,,0.00,meteohub,2013-02-18 09:07:00,
2013-02-18 04:12:00,37.9,29.7,30.31,NW,315,2.0,2.0,72,0.00,,,0.00,meteohub,2013-02-18 09:12:00,
2013-02-18 04:17:00,38.5,30.2,30.31,NW,315,3.0,3.0,72,0.00,,,0.00,meteohub,2013-02-18 09:17:00,
2013-02-18 04:22:00,38.8,29.8,30.31,NW,315,4.0,4.0,70,0.00,,,0.00,meteohub,2013-02-18 09:22:00,
2013-02-18 04:27:00,39.2,29.5,30.31,NW,315,1.0,4.0,68,0.00,,,0.00,meteohub,2013-02-18 09:27:00,
2013-02-18 04:32:00,39.2,29.1,30.31,NW,315,5.0,5.0,67,0.00,,,0.00,meteohub,2013-02-18 09:32:00,
2013-02-18 04:37:00,39.6,28.8,30.31,NW,315,2.0,5.0,65,0.00,,,0.00,meteohub,2013-02-18 09:37:00,
2013-02-18 04:42:00,39.7,28.6,30.31,NW,315,3.0,5.0,64,0.00,,,0.00,meteohub,2013-02-18 09:42:00,
2013-02-18 04:47:00,39.9,28.8,30.31,NNW,338,0.0,5.0,64,0.00,,,0.00,meteohub,2013-02-18 09:47:00,
2013-02-18 04:52:00,39.7,28.9,30.31,North,0,2.0,4.0,65,0.00,,,0.00,meteohub,2013-02-18 09:52:00,
2013-02-18 04:57:00,39.6,28.8,30.31,NW,315,2.0,3.0,65,0.00,,,0.00,meteohub,2013-02-18 09:57:00,
2013-02-18 05:02:00,39.6,28.8,30.31,NW,315,3.0,3.0,65,0.00,,,0.00,meteohub,2013-02-18 10:02:00,
2013-02-18 05:07:00,39.6,28.8,30.31,NW,315,3.0,3.0,65,0.00,,,0.00,meteohub,2013-02-18 10:07:00,
2013-02-18 05:12:00,39.4,28.6,30.31,NW,315,0.0,3.0,65,0.00,,,0.00,meteohub,2013-02-18 10:12:00,
2013-02-18 05:17:00,39.0,28.6,30.31,North,0,1.0,3.0,66,0.00,,,0.00,meteohub,2013-02-18 10:17:00,
2013-02-18 05:22:00,38.7,28.2,30.31,NW,315,2.0,3.0,66,0.00,,,0.00,meteohub,2013-02-18 10:22:00,
2013-02-18 05:27:00,38.7,28.6,30.31,NW,315,1.0,2.0,67,0.00,,,0.00,meteohub,2013-02-18 10:27:00,
2013-02-18 05:32:00,38.7,28.2,30.31,North,0,1.0,2.0,66,0.00,,,0.00,meteohub,2013-02-18 10:32:00,
2013-02-18 05:37:00,38.8,28.4,30.31,NE,45,2.0,3.0,66,0.00,,,0.00,meteohub,2013-02-18 10:37:00,
2013-02-18 05:42:00,38.8,28.4,30.31,West,270,1.0,3.0,66,0.00,,,0.00,meteohub,2013-02-18 10:42:00,
2013-02-18 05:47:00,38.7,28.2,30.31,West,270,0.0,2.0,66,0.00,,,0.00,meteohub,2013-02-18 10:47:00,
2013-02-18 05:52:00,38.3,28.2,30.31,NW,315,2.0,3.0,67,0.00,,,0.00,meteohub,2013-02-18 10:52:00,
2013-02-18 05:57:00,38.5,28.4,30.31,NW,315,2.0,3.0,67,0.00,,,0.00,meteohub,2013-02-18 10:57:00,
2013-02-18 06:02:00,38.8,28.4,30.32,NW,315,2.0,4.0,66,0.00,,,0.00,meteohub,2013-02-18 11:02:00,
2013-02-18 06:07:00,38.7,28.6,30.31,NW,315,2.0,4.0,67,0.00,,,0.00,meteohub,2013-02-18 11:07:00,
2013-02-18 06:12:00,38.7,28.6,30.31,NW,315,2.0,4.0,67,0.00,,,0.00,meteohub,2013-02-18 11:12:00,
2013-02-18 06:17:00,38.7,28.6,30.32,NW,315,2.0,2.0,67,0.00,,,0.00,meteohub,2013-02-18 11:17:00,
2013-02-18 06:22:00,38.8,28.8,30.32,NW,315,2.0,2.0,67,0.00,,,0.00,meteohub,2013-02-18 11:22:00,
2013-02-18 06:28:00,38.8,28.4,30.32,NW,315,2.0,2.0,66,0.00,,,0.00,meteohub,2013-02-18 11:28:00,
2013-02-18 06:33:00,38.8,28.4,30.32,NW,315,2.0,3.0,66,0.00,,,0.00,meteohub,2013-02-18 11:33:00,
2013-02-18 06:41:00,39.0,28.2,30.32,NW,315,2.0,3.0,65,0.00,,,0.00,meteohub,2013-02-18 11:41:00,
2013-02-18 06:46:00,39.6,28.4,30.32,North,0,2.0,4.0,64,0.00,,,0.00,meteohub,2013-02-18 11:46:00,
2013-02-18 06:52:00,39.6,28.4,30.32,North,0,4.0,4.0,64,0.00,,,0.00,meteohub,2013-02-18 11:52:00,
2013-02-18 06:57:00,39.9,28.8,30.32,North,0,3.0,4.0,64,0.00,,,0.00,meteohub,2013-02-18 11:57:00,
2013-02-18 07:02:00,40.3,29.1,30.32,West,270,4.0,4.0,64,0.00,,,0.00,meteohub,2013-02-18 12:02:00,
2013-02-18 07:07:00,40.6,29.5,30.32,NW,315,4.0,4.0,64,0.00,,,0.00,meteohub,2013-02-18 12:07:00,
2013-02-18 07:12:00,40.8,29.7,30.32,NW,315,4.0,4.0,64,0.00,,,0.00,meteohub,2013-02-18 12:12:00,
2013-02-18 07:17:00,41.4,29.7,30.32,North,0,7.0,7.0,63,0.00,,,0.00,meteohub,2013-02-18 12:17:00,
2013-02-18 07:22:00,42.1,30.4,30.32,North,0,4.0,7.0,63,0.00,,,0.00,meteohub,2013-02-18 12:22:00,
2013-02-18 07:27:00,42.3,30.6,30.33,East,90,2.0,7.0,63,0.00,,,0.00,meteohub,2013-02-18 12:27:00,
2013-02-18 07:32:00,42.4,30.7,30.33,NW,315,2.0,7.0,63,0.00,,,0.00,meteohub,2013-02-18 12:32:00,
2013-02-18 07:37:00,42.8,30.7,30.32,North,0,4.0,4.0,62,0.00,,,0.00,meteohub,2013-02-18 12:37:00,
2013-02-18 07:42:00,43.3,31.3,30.32,NW,315,3.0,4.0,62,0.00,,,0.00,meteohub,2013-02-18 12:42:00,
2013-02-18 07:47:00,45.7,32.2,30.33,NW,315,2.0,4.0,59,0.00,,,0.00,meteohub,2013-02-18 12:47:00,
2013-02-18 07:52:00,47.5,32.5,30.33,NW,315,2.0,4.0,56,0.00,,,0.00,meteohub,2013-02-18 12:52:00,
2013-02-18 07:57:00,50.4,32.9,30.33,WNW,293,4.0,4.0,51,0.00,,,0.00,meteohub,2013-02-18 12:57:00,
2013-02-18 08:03:00,52.0,31.8,30.33,NW,315,2.0,4.0,46,0.00,,,0.00,meteohub,2013-02-18 13:03:00,
2013-02-18 08:08:00,53.6,32.2,30.33,North,0,2.0,4.0,44,0.00,,,0.00,meteohub,2013-02-18 13:08:00,
2013-02-18 08:13:00,55.2,32.0,30.33,NW,315,4.0,4.0,41,0.00,,,0.00,meteohub,2013-02-18 13:13:00,
2013-02-18 08:18:00,55.4,30.2,30.33,NW,315,4.0,4.0,38,0.00,,,0.00,meteohub,2013-02-18 13:18:00,
2013-02-18 08:26:00,55.8,29.1,30.33,North,0,2.0,7.0,36,0.00,,,0.00,meteohub,2013-02-18 13:26:00,
2013-02-18 08:31:00,55.9,28.0,30.33,NW,315,4.0,11.0,34,0.00,,,0.00,meteohub,2013-02-18 13:31:00,
2013-02-18 08:36:00,57.4,26.2,30.33,North,0,3.0,11.0,30,0.00,,,0.00,meteohub,2013-02-18 13:36:00,
2013-02-18 08:42:00,57.6,21.9,30.34,NW,315,7.0,7.0,25,0.00,,,0.00,meteohub,2013-02-18 13:42:00,
2013-02-18 08:47:00,57.0,22.5,30.34,NW,315,7.0,8.0,26,0.00,,,0.00,meteohub,2013-02-18 13:47:00,
2013-02-18 08:52:00,57.0,22.5,30.34,NE,45,4.0,11.0,26,0.00,,,0.00,meteohub,2013-02-18 13:52:00,
2013-02-18 08:59:00,57.4,21.9,30.34,NNE,23,7.0,11.0,25,0.00,,,0.00,meteohub,2013-02-18 13:59:00,
2013-02-18 09:04:00,60.1,25.2,30.34,ENE,68,5.0,11.0,26,0.00,,,0.00,meteohub,2013-02-18 14:04:00,
2013-02-18 09:09:00,60.3,23.4,30.34,North,0,9.0,11.0,24,0.00,,,0.00,meteohub,2013-02-18 14:09:00,
2013-02-18 09:14:00,60.1,25.2,30.34,NW,315,5.0,8.0,26,0.00,,,0.00,meteohub,2013-02-18 14:14:00,
2013-02-18 09:19:00,59.9,25.0,30.34,NW,315,5.0,9.0,26,0.00,,,0.00,meteohub,2013-02-18 14:19:00,
2013-02-18 09:26:00,59.9,26.8,30.34,North,0,4.0,9.0,28,0.00,,,0.00,meteohub,2013-02-18 14:26:00,
2013-02-18 09:31:00,62.1,27.7,30.34,NW,315,6.0,9.0,27,0.00,,,0.00,meteohub,2013-02-18 14:31:00,
2013-02-18 09:37:00,61.9,28.4,30.34,NNE,23,4.0,8.0,28,0.00,,,0.00,meteohub,2013-02-18 14:37:00,
2013-02-18 09:42:00,62.1,29.5,30.34,SE,135,4.0,8.0,29,0.00,,,0.00,meteohub,2013-02-18 14:42:00,
2013-02-18 09:47:00,61.9,30.0,30.35,East,90,11.0,11.0,30,0.00,,,0.00,meteohub,2013-02-18 14:47:00,
2013-02-18 09:52:00,61.9,31.6,30.34,East,90,5.0,11.0,32,0.00,,,0.00,meteohub,2013-02-18 14:52:00,
2013-02-18 09:57:00,62.6,32.4,30.34,East,90,5.0,11.0,32,0.00,,,0.00,meteohub,2013-02-18 14:57:00,
2013-02-18 10:02:00,63.0,32.7,30.34,North,0,6.0,11.0,32,0.00,,,0.00,meteohub,2013-02-18 15:02:00,
2013-02-18 10:07:00,63.7,33.3,30.34,SE,135,8.0,10.0,32,0.00,,,0.00,meteohub,2013-02-18 15:07:00,
2013-02-18 10:12:00,63.7,34.0,30.34,NW,315,7.0,10.0,33,0.00,,,0.00,meteohub,2013-02-18 15:12:00,
2013-02-18 10:17:00,64.2,34.5,30.34,NE,45,4.0,9.0,33,0.00,,,0.00,meteohub,2013-02-18 15:17:00,
2013-02-18 10:22:00,65.7,37.2,30.34,West,270,4.0,8.0,35,0.00,,,0.00,meteohub,2013-02-18 15:22:00,
2013-02-18 10:27:00,66.2,37.0,30.34,NW,315,8.0,11.0,34,0.00,,,0.00,meteohub,2013-02-18 15:27:00,
2013-02-18 10:32:00,65.3,36.9,30.34,NW,315,6.0,11.0,35,0.00,,,0.00,meteohub,2013-02-18 15:32:00,
2013-02-18 10:37:00,66.6,38.8,30.34,North,0,8.0,11.0,36,0.00,,,0.00,meteohub,2013-02-18 15:37:00,
2013-02-18 10:42:00,66.4,37.9,30.34,NW,315,11.0,11.0,35,0.00,,,0.00,meteohub,2013-02-18 15:42:00,
2013-02-18 10:47:00,66.2,38.5,30.34,NE,45,5.0,11.0,36,0.00,,,0.00,meteohub,2013-02-18 15:47:00,
2013-02-18 10:52:00,67.3,39.4,30.34,NW,315,4.0,11.0,36,0.00,,,0.00,meteohub,2013-02-18 15:52:00,
2013-02-18 10:57:00,68.2,39.6,30.34,West,270,5.0,11.0,35,0.00,,,0.00,meteohub,2013-02-18 15:57:00,
2013-02-18 11:02:00,68.4,38.8,30.34,North,0,2.0,11.0,34,0.00,,,0.00,meteohub,2013-02-18 16:02:00,
2013-02-18 11:07:00,69.3,39.7,30.34,NW,315,4.0,11.0,34,0.00,,,0.00,meteohub,2013-02-18 16:07:00,
2013-02-18 11:12:00,69.8,38.7,30.34,NE,45,7.0,9.0,32,0.00,,,0.00,meteohub,2013-02-18 16:12:00,
2013-02-18 11:17:00,69.6,39.9,30.34,NE,45,4.0,8.0,34,0.00,,,0.00,meteohub,2013-02-18 16:17:00,
2013-02-18 11:22:00,70.0,39.6,30.33,NW,315,10.0,10.0,33,0.00,,,0.00,meteohub,2013-02-18 16:22:00,
2013-02-18 11:27:00,69.6,39.9,30.33,NW,315,4.0,10.0,34,0.00,,,0.00,meteohub,2013-02-18 16:27:00,
2013-02-18 11:32:00,70.3,40.6,30.33,North,0,6.0,11.0,34,0.00,,,0.00,meteohub,2013-02-18 16:32:00,
2013-02-18 11:37:00,70.7,41.0,30.33,North,0,4.0,11.0,34,0.00,,,0.00,meteohub,2013-02-18 16:37:00,
2013-02-18 11:44:00,71.2,40.6,30.33,NE,45,4.0,9.0,33,0.00,,,0.00,meteohub,2013-02-18 16:44:00,
2013-02-18 11:50:00,71.4,41.5,30.33,East,90,8.0,9.0,34,0.00,,,0.00,meteohub,2013-02-18 16:50:00,
2013-02-18 11:55:00,71.8,41.2,30.32,NE,45,3.0,9.0,33,0.00,,,0.00,meteohub,2013-02-18 16:55:00,
2013-02-18 12:00:00,72.5,41.7,30.32,North,0,4.0,8.0,33,0.00,,,0.00,meteohub,2013-02-18 17:00:00,
2013-02-18 12:05:00,72.5,42.6,30.32,North,0,9.0,9.0,34,0.00,,,0.00,meteohub,2013-02-18 17:05:00,
2013-02-18 12:10:00,73.0,43.7,30.31,North,0,8.0,9.0,35,0.00,,,0.00,meteohub,2013-02-18 17:10:00,
2013-02-18 12:16:00,72.3,43.9,30.31,NE,45,11.0,11.0,36,0.00,,,0.00,meteohub,2013-02-18 17:16:00,
2013-02-18 12:21:00,72.1,43.0,30.31,North,0,8.0,11.0,35,0.00,,,0.00,meteohub,2013-02-18 17:21:00,
2013-02-18 12:26:00,72.5,44.1,30.31,NE,45,8.0,13.0,36,0.00,,,0.00,meteohub,2013-02-18 17:26:00,
2013-02-18 12:31:00,73.0,44.4,30.30,NE,45,12.0,13.0,36,0.00,,,0.00,meteohub,2013-02-18 17:31:00,
2013-02-18 12:36:00,73.0,45.1,30.30,SE,135,5.0,12.0,37,0.00,,,0.00,meteohub,2013-02-18 17:36:00,
2013-02-18 12:42:00,73.8,45.9,30.30,NE,45,11.0,12.0,37,0.00,,,0.00,meteohub,2013-02-18 17:42:00,
2013-02-18 12:47:00,73.6,45.0,30.30,WNW,293,5.0,12.0,36,0.00,,,0.00,meteohub,2013-02-18 17:47:00,
2013-02-18 12:52:00,73.4,44.8,30.29,North,0,4.0,14.0,36,0.00,,,0.00,meteohub,2013-02-18 17:52:00,
2013-02-18 12:59:00,73.8,45.9,30.29,North,0,5.0,14.0,37,0.00,,,0.00,meteohub,2013-02-18 17:59:00,
2013-02-18 13:05:00,74.5,45.9,30.28,North,0,4.0,14.0,36,0.00,,,0.00,meteohub,2013-02-18 18:05:00,
2013-02-18 13:10:00,74.8,46.0,30.27,East,90,8.0,10.0,36,0.00,,,0.00,meteohub,2013-02-18 18:10:00,
2013-02-18 13:15:00,74.5,45.9,30.28,NE,45,9.0,10.0,36,0.00,,,0.00,meteohub,2013-02-18 18:15:00,
2013-02-18 13:20:00,74.1,45.5,30.28,NE,45,6.0,10.0,36,0.00,,,0.00,meteohub,2013-02-18 18:20:00,
2013-02-18 13:25:00,74.3,46.4,30.27,NW,315,7.0,11.0,37,0.00,,,0.00,meteohub,2013-02-18 18:25:00,
2013-02-18 13:30:00,73.4,46.2,30.27,NW,315,8.0,11.0,38,0.00,,,0.00,meteohub,2013-02-18 18:30:00,
2013-02-18 13:36:00,73.2,45.3,30.27,East,90,10.0,11.0,37,0.00,,,0.00,meteohub,2013-02-18 18:36:00,
2013-02-18 13:41:00,74.5,47.1,30.26,NW,315,8.0,10.0,38,0.00,,,0.00,meteohub,2013-02-18 18:41:00,
2013-02-18 13:46:00,75.0,46.9,30.26,East,90,7.0,10.0,37,0.00,,,0.00,meteohub,2013-02-18 18:46:00,
2013-02-18 13:51:00,75.0,46.2,30.26,NW,315,8.0,10.0,36,0.00,,,0.00,meteohub,2013-02-18 18:51:00,
2013-02-18 13:57:00,73.9,46.0,30.26,NW,315,6.0,9.0,37,0.00,,,0.00,meteohub,2013-02-18 18:57:00,
2013-02-18 14:02:00,73.9,46.8,30.26,NE,45,7.0,11.0,38,0.00,,,0.00,meteohub,2013-02-18 19:02:00,
2013-02-18 14:07:00,74.8,46.8,30.25,NE,45,11.0,11.0,37,0.00,,,0.00,meteohub,2013-02-18 19:07:00,
2013-02-18 14:12:00,72.9,44.4,30.25,NE,45,8.0,11.0,36,0.00,,,0.00,meteohub,2013-02-18 19:12:00,
2013-02-18 14:18:00,73.8,46.6,30.25,North,0,8.0,15.0,38,0.00,,,0.00,meteohub,2013-02-18 19:18:00,
2013-02-18 14:23:00,75.2,46.4,30.25,NNW,338,8.0,15.0,36,0.00,,,0.00,meteohub,2013-02-18 19:23:00,
2013-02-18 14:28:00,73.9,46.0,30.25,North,0,5.0,15.0,37,0.00,,,0.00,meteohub,2013-02-18 19:28:00,
2013-02-18 14:34:00,75.2,46.4,30.24,North,0,4.0,9.0,36,0.00,,,0.00,meteohub,2013-02-18 19:34:00,
2013-02-18 14:39:00,77.2,46.6,30.25,North,0,4.0,8.0,34,0.00,,,0.00,meteohub,2013-02-18 19:39:00,
2013-02-18 14:44:00,77.9,46.4,30.25,South,180,3.0,8.0,33,0.00,,,0.00,meteohub,2013-02-18 19:44:00,
2013-02-18 14:49:00,75.6,45.1,30.25,North,0,5.0,8.0,34,0.00,,,0.00,meteohub,2013-02-18 19:49:00,
2013-02-18 14:55:00,74.5,45.9,30.25,ENE,68,7.0,8.0,36,0.00,,,0.00,meteohub,2013-02-18 19:55:00,
2013-02-18 15:00:00,73.6,45.7,30.25,NE,45,2.0,10.0,37,0.00,,,0.00,meteohub,2013-02-18 20:00:00,
2013-02-18 15:05:00,72.3,43.9,30.25,SE,135,11.0,11.0,36,0.00,,,0.00,meteohub,2013-02-18 20:05:00,
2013-02-18 15:10:00,73.4,44.8,30.25,North,0,9.0,11.0,36,0.00,,,0.00,meteohub,2013-02-18 20:10:00,
2013-02-18 15:17:00,75.6,45.1,30.25,WSW,248,8.0,11.0,34,0.00,,,0.00,meteohub,2013-02-18 20:17:00,
2013-02-18 15:22:00,73.6,45.0,30.25,North,0,8.0,11.0,36,0.00,,,0.00,meteohub,2013-02-18 20:22:00,
2013-02-18 15:27:00,75.6,45.1,30.25,North,0,5.0,11.0,34,0.00,,,0.00,meteohub,2013-02-18 20:27:00,
2013-02-18 15:36:00,76.1,45.0,30.24,East,90,5.0,11.0,33,0.00,,,0.00,meteohub,2013-02-18 20:36:00,
2013-02-18 15:42:00,74.5,45.0,30.25,North,0,6.0,8.0,35,0.00,,,0.00,meteohub,2013-02-18 20:42:00,
2013-02-18 15:47:00,74.5,45.0,30.24,East,90,9.0,9.0,35,0.00,,,0.00,meteohub,2013-02-18 20:47:00,
2013-02-18 15:52:00,75.6,45.1,30.24,East,90,5.0,10.0,34,0.00,,,0.00,meteohub,2013-02-18 20:52:00,
2013-02-18 15:57:00,76.5,46.0,30.24,NE,45,4.0,10.0,34,0.00,,,0.00,meteohub,2013-02-18 20:57:00,
2013-02-18 16:05:00,76.8,45.5,30.24,NE,45,5.0,10.0,33,0.00,,,0.00,meteohub,2013-02-18 21:05:00,
2013-02-18 16:10:00,76.5,46.0,30.24,North,0,5.0,12.0,34,0.00,,,0.00,meteohub,2013-02-18 21:10:00,
2013-02-18 16:15:00,75.9,45.5,30.24,NE,45,4.0,8.0,34,0.00,,,0.00,meteohub,2013-02-18 21:15:00,
2013-02-18 16:20:00,73.6,44.2,30.24,North,0,6.0,8.0,35,0.00,,,0.00,meteohub,2013-02-18 21:20:00,
2013-02-18 16:26:00,73.6,45.0,30.24,East,90,4.0,8.0,36,0.00,,,0.00,meteohub,2013-02-18 21:26:00,
2013-02-18 16:31:00,73.4,45.5,30.24,NE,45,8.0,11.0,37,0.00,,,0.00,meteohub,2013-02-18 21:31:00,
2013-02-18 16:36:00,74.7,45.9,30.24,NNW,338,2.0,11.0,36,0.00,,,0.00,meteohub,2013-02-18 21:36:00,
2013-02-18 16:42:00,73.6,45.0,30.24,NNW,338,4.0,11.0,36,0.00,,,0.00,meteohub,2013-02-18 21:42:00,
2013-02-18 16:47:00,73.9,46.0,30.24,North,0,6.0,10.0,37,0.00,,,0.00,meteohub,2013-02-18 21:47:00,
2013-02-18 16:52:00,74.1,46.9,30.24,SW,225,7.0,9.0,38,0.00,,,0.00,meteohub,2013-02-18 21:52:00,
2013-02-18 16:58:00,75.6,46.0,30.24,NW,315,6.0,9.0,35,0.00,,,0.00,meteohub,2013-02-18 21:58:00,
2013-02-18 17:04:00,75.6,46.0,30.24,East,90,4.0,9.0,35,0.00,,,0.00,meteohub,2013-02-18 22:04:00,
2013-02-18 17:09:00,74.7,46.6,30.24,South,180,8.0,11.0,37,0.00,,,0.00,meteohub,2013-02-18 22:09:00,
2013-02-18 17:15:00,74.8,46.8,30.23,East,90,4.0,11.0,37,0.00,,,0.00,meteohub,2013-02-18 22:15:00,
2013-02-18 17:20:00,74.1,46.2,30.24,NW,315,4.0,11.0,37,0.00,,,0.00,meteohub,2013-02-18 22:20:00,
2013-02-18 17:25:00,73.9,46.8,30.24,NE,45,6.0,11.0,38,0.00,,,0.00,meteohub,2013-02-18 22:25:00,
2013-02-18 17:31:00,73.0,45.1,30.24,NE,45,6.0,11.0,37,0.00,,,0.00,meteohub,2013-02-18 22:31:00,
2013-02-18 17:36:00,72.3,46.0,30.24,NE,45,4.0,11.0,39,0.00,,,0.00,meteohub,2013-02-18 22:36:00,
2013-02-18 17:41:00,71.8,46.2,30.24,NW,315,3.0,7.0,40,0.00,,,0.00,meteohub,2013-02-18 22:41:00,
2013-02-18 17:46:00,71.1,46.8,30.24,NW,315,4.0,7.0,42,0.00,,,0.00,meteohub,2013-02-18 22:46:00,
2013-02-18 17:51:00,70.9,46.6,30.24,North,0,6.0,6.0,42,0.00,,,0.00,meteohub,2013-02-18 22:51:00,
2013-02-18 17:57:00,69.8,45.7,30.24,NW,315,4.0,7.0,42,0.00,,,0.00,meteohub,2013-02-18 22:57:00,
2013-02-18 18:02:00,69.1,46.2,30.24,North,0,6.0,8.0,44,0.00,,,0.00,meteohub,2013-02-18 23:02:00,
2013-02-18 18:07:00,68.5,45.7,30.24,North,0,4.0,8.0,44,0.00,,,0.00,meteohub,2013-02-18 23:07:00,
2013-02-18 18:12:00,68.2,46.0,30.24,NE,45,6.0,8.0,45,0.00,,,0.00,meteohub,2013-02-18 23:12:00,
2013-02-18 18:17:00,67.8,46.2,30.24,East,90,3.0,8.0,46,0.00,,,0.00,meteohub,2013-02-18 23:17:00,
2013-02-18 18:22:00,67.5,46.6,30.24,West,270,2.0,7.0,47,0.00,,,0.00,meteohub,2013-02-18 23:22:00,
2013-02-18 18:27:00,66.9,46.0,30.25,North,0,3.0,6.0,47,0.00,,,0.00,meteohub,2013-02-18 23:27:00,
2013-02-18 18:33:00,66.6,46.2,30.25,North,0,6.0,6.0,48,0.00,,,0.00,meteohub,2013-02-18 23:33:00,
2013-02-18 18:38:00,66.4,46.0,30.25,NW,315,3.0,6.0,48,0.00,,,0.00,meteohub,2013-02-18 23:38:00,
2013-02-18 18:43:00,66.2,45.9,30.25,NW,315,3.0,7.0,48,0.00,,,0.00,meteohub,2013-02-18 23:43:00,
2013-02-18 18:48:00,65.8,46.8,30.26,NW,315,2.0,7.0,50,0.00,,,0.00,meteohub,2013-02-18 23:48:00,
2013-02-18 18:54:00,65.8,47.1,30.25,NE,45,3.0,6.0,51,0.00,,,0.00,meteohub,2013-02-18 23:54:00,
2013-02-18 18:59:00,65.7,47.5,30.25,NW,315,4.0,6.0,52,0.00,,,0.00,meteohub,2013-02-18 23:59:00,
2013-02-18 19:04:00,65.5,47.8,30.25,NNW,338,4.0,6.0,53,0.00,,,0.00,meteohub,2013-02-19 00:04:00,
2013-02-18 19:09:00,65.3,48.2,30.25,North,0,2.0,6.0,54,0.00,,,0.00,meteohub,2013-02-19 00:09:00,
2013-02-18 19:15:00,65.1,48.6,30.25,North,0,4.0,5.0,55,0.00,,,0.00,meteohub,2013-02-19 00:15:00,
2013-02-18 19:20:00,64.8,48.2,30.25,North,0,6.0,7.0,55,0.00,,,0.00,meteohub,2013-02-19 00:20:00,
2013-02-18 19:25:00,64.8,48.7,30.25,SE,135,3.0,7.0,56,0.00,,,0.00,meteohub,2013-02-19 00:25:00,
2013-02-18 19:30:00,64.6,48.9,30.25,NE,45,4.0,6.0,57,0.00,,,0.00,meteohub,2013-02-19 00:30:00,
2013-02-18 19:37:00,64.4,48.9,30.25,North,0,3.0,6.0,57,0.00,,,0.00,meteohub,2013-02-19 00:37:00,
2013-02-18 19:42:00,64.0,48.9,30.26,NW,315,3.0,6.0,58,0.00,,,0.00,meteohub,2013-02-19 00:42:00,
2013-02-18 19:47:00,63.9,49.3,30.25,East,90,7.0,7.0,59,0.00,,,0.00,meteohub,2013-02-19 00:47:00,
2013-02-18 19:52:00,63.9,49.3,30.25,NE,45,2.0,7.0,59,0.00,,,0.00,meteohub,2013-02-19 00:52:00,
2013-02-18 19:57:00,63.7,49.5,30.25,North,0,4.0,7.0,60,0.00,,,0.00,meteohub,2013-02-19 00:57:00,
2013-02-18 20:02:00,63.5,49.3,30.25,North,0,3.0,7.0,60,0.00,,,0.00,meteohub,2013-02-19 01:02:00,
2013-02-18 20:07:00,63.1,49.5,30.25,ENE,68,5.0,5.0,61,0.00,,,0.00,meteohub,2013-02-19 01:07:00,
2013-02-18 20:15:00,63.1,49.5,30.26,NE,45,2.0,5.0,61,0.00,,,0.00,meteohub,2013-02-19 01:15:00,
2013-02-18 20:20:00,62.8,49.1,30.26,NW,315,3.0,5.0,61,0.00,,,0.00,meteohub,2013-02-19 01:20:00,
2013-02-18 20:25:00,62.6,49.5,30.26,North,0,4.0,5.0,62,0.00,,,0.00,meteohub,2013-02-19 01:25:00,
2013-02-18 20:30:00,62.2,49.5,30.26,North,0,4.0,5.0,63,0.00,,,0.00,meteohub,2013-02-19 01:30:00,
2013-02-18 20:36:00,62.1,49.3,30.26,NW,315,2.0,5.0,63,0.00,,,0.00,meteohub,2013-02-19 01:36:00,
2013-02-18 20:41:00,61.9,49.6,30.26,NW,315,3.0,4.0,64,0.00,,,0.00,meteohub,2013-02-19 01:41:00,
2013-02-18 20:46:00,61.5,49.3,30.27,SW,225,2.0,4.0,64,0.00,,,0.00,meteohub,2013-02-19 01:46:00,
2013-02-18 20:52:00,61.3,49.1,30.26,South,180,2.0,4.0,64,0.00,,,0.00,meteohub,2013-02-19 01:52:00,
2013-02-18 20:57:00,61.2,49.3,30.26,NNW,338,3.0,4.0,65,0.00,,,0.00,meteohub,2013-02-19 01:57:00,
2013-02-18 21:02:00,61.0,49.1,30.26,North,0,2.0,3.0,65,0.00,,,0.00,meteohub,2013-02-19 02:02:00,
2013-02-18 21:07:00,60.8,48.9,30.27,North,0,4.0,4.0,65,0.00,,,0.00,meteohub,2013-02-19 02:07:00,
2013-02-18 21:12:00,60.8,48.9,30.27,NE,45,2.0,4.0,65,0.00,,,0.00,meteohub,2013-02-19 02:12:00,
2013-02-18 21:18:00,60.6,49.3,30.27,NW,315,2.0,4.0,66,0.00,,,0.00,meteohub,2013-02-19 02:18:00,
2013-02-18 21:23:00,60.6,49.6,30.27,North,0,3.0,4.0,67,0.00,,,0.00,meteohub,2013-02-19 02:23:00,
2013-02-18 21:28:00,60.4,49.5,30.26,NW,315,2.0,6.0,67,0.00,,,0.00,meteohub,2013-02-19 02:28:00,
2013-02-18 21:33:00,60.4,49.5,30.26,NE,45,2.0,6.0,67,0.00,,,0.00,meteohub,2013-02-19 02:33:00,
2013-02-18 21:39:00,60.4,49.5,30.27,North,0,4.0,6.0,67,0.00,,,0.00,meteohub,2013-02-19 02:39:00,
2013-02-18 21:44:00,60.1,49.5,30.27,North,0,2.0,6.0,68,0.00,,,0.00,meteohub,2013-02-19 02:44:00,
2013-02-18 21:49:00,59.9,49.3,30.27,West,270,2.0,6.0,68,0.00,,,0.00,meteohub,2013-02-19 02:49:00,
2013-02-18 21:55:00,59.9,49.6,30.26,North,0,4.0,4.0,69,0.00,,,0.00,meteohub,2013-02-19 02:55:00,
2013-02-18 22:00:00,59.7,49.5,30.27,NW,315,2.0,4.0,69,0.00,,,0.00,meteohub,2013-02-19 03:00:00,
2013-02-18 22:07:00,59.5,49.3,30.27,NW,315,1.0,4.0,69,0.00,,,0.00,meteohub,2013-02-19 03:07:00,
2013-02-18 22:12:00,59.0,49.3,30.27,NNW,338,2.0,4.0,70,0.00,,,0.00,meteohub,2013-02-19 03:12:00,
2013-02-18 22:17:00,58.6,49.6,30.27,North,0,2.0,3.0,72,0.00,,,0.00,meteohub,2013-02-19 03:17:00,
2013-02-18 22:22:00,58.3,49.3,30.27,NW,315,2.0,3.0,72,0.00,,,0.00,meteohub,2013-02-19 03:22:00,
2013-02-18 22:27:00,58.1,49.5,30.27,NE,45,2.0,3.0,73,0.00,,,0.00,meteohub,2013-02-19 03:27:00,
2013-02-18 22:32:00,57.9,49.6,30.26,WNW,293,2.0,3.0,74,0.00,,,0.00,meteohub,2013-02-19 03:32:00,
2013-02-18 22:37:00,57.9,49.6,30.26,North,0,1.0,6.0,74,0.00,,,0.00,meteohub,2013-02-19 03:37:00,
2013-02-18 22:42:00,57.9,49.6,30.26,NW,315,2.0,6.0,74,0.00,,,0.00,meteohub,2013-02-19 03:42:00,
2013-02-18 22:47:00,57.9,49.6,30.26,North,0,4.0,6.0,74,0.00,,,0.00,meteohub,2013-02-19 03:47:00,
2013-02-18 22:53:00,57.7,49.5,30.26,NE,45,4.0,4.0,74,0.00,,,0.00,meteohub,2013-02-19 03:53:00,
2013-02-18 22:59:00,57.7,49.5,30.25,NW,315,3.0,4.0,74,0.00,,,0.00,meteohub,2013-02-19 03:59:00,
2013-02-18 23:05:00,57.7,49.5,30.25,NW,315,2.0,4.0,74,0.00,,,0.00,meteohub,2013-02-19 04:05:00,
2013-02-18 23:10:00,57.6,49.3,30.25,NW,315,1.0,4.0,74,0.00,,,0.00,meteohub,2013-02-19 04:10:00,
2013-02-18 23:16:00,57.2,48.9,30.25,NW,315,1.0,4.0,74,0.00,,,0.00,meteohub,2013-02-19 04:16:00,
2013-02-18 23:22:00,57.2,49.3,30.25,ENE,68,2.0,4.0,75,0.00,,,0.00,meteohub,2013-02-19 04:22:00,
2013-02-18 23:27:00,57.0,49.5,30.24,NW,315,1.0,4.0,76,0.00,,,0.00,meteohub,2013-02-19 04:27:00,
2013-02-18 23:32:00,56.8,49.3,30.25,NE,45,2.0,4.0,76,0.00,,,0.00,meteohub,2013-02-19 04:32:00,
2013-02-18 23:37:00,56.8,49.3,30.24,North,0,0.0,2.0,76,0.00,,,0.00,meteohub,2013-02-19 04:37:00,
2013-02-18 23:42:00,56.5,48.9,30.23,NNE,23,2.0,2.0,76,0.00,,,0.00,meteohub,2013-02-19 04:42:00,
2013-02-18 23:50:00,56.5,49.3,30.23,ENE,68,4.0,4.0,77,0.00,,,0.00,meteohub,2013-02-19 04:50:00,
2013-02-18 23:55:00,56.7,49.5,30.23,North,0,2.0,4.0,77,0.00,,,0.00,meteohub,2013-02-19 04:55:00,